Location: Chimay
(50.0486°N, 4.3171°E)
Time: 20:41:07
(UTC+00:00)

Cosmos 2084 Rocket - Pass Details

Date: 08 August 2020
Orbit: 549 x 632 km, 62.8° (Epoch: 22 September)

Event Time Altitude Azimuth Distance (km) Brightness Sun altitude
Exits shadow 23:35:33 37° 274° (W) 905 4.4 -24.1°
Maximum altitude 23:36:45 49° 321° (NW) 755 4.2 -24.1°
Drops below altitude 10° 23:40:58 10° 37° (NE) 1,923 6.7 -24.2°
Sets 23:43:19 0° 43° (NE) 2,842 7.6 -24.2°
